Wind_Speed
27 26 26 26 26 27 27 28 29 29 30 31 31 31 31 32 32 33 33 34 34 36 37 38 40 42 43 44 45 46 47 47 48 48 49 51 52 53 54 55 57 57 57
24 25 25 26 26 27 27 28 29 29 29 30 31 31 31 32 32 33 33 34 35 36 37 38 40 41 43 45 46 46 47 48 48 48 48 50 51 53 54 55 55 56 57
23 23 24 25 26 27 28 29 30 30 30 30 31 32 32 32 32 33 34 35 36 36 37 39 40 41 43 44 45 46 47 48 49 49 50 50 51 51 52 53 55 56 58
23 23 24 25 26 28 28 29 30 30 30 31 31 31 31 32 32 33 34 34 36 37 38 38 39 41 42 43 45 46 47 48 49 50 50 51 52 52 53 54 55 56 58
23 24 25 26 27 28 29 29 29 29 30 31 31 31 32 32 33 34 35 36 37 38 38 39 41 41 42 43 44 46 47 48 50 51 52 53 54 54 55 55 56 57 58
23 24 25 26 27 28 29 29 30 30 31 31 31 32 33 34 34 35 36 37 37 38 39 40 41 42 43 44 45 47 48 49 51 53 54 55 56 57 57 58 58 58 59
24 25 27 28 28 29 30 30 31 31 32 32 33 34 35 35 36 36 37 38 39 40 41 42 42 43 44 45 46 47 49 50 52 53 55 56 57 58 59 59 60 60 60
26 27 28 29 30 31 31 31 32 32 32 33 34 35 36 36 37 38 39 40 41 42 43 43 44 45 45 46 48 49 51 53 54 55 56 57 58 59 60 61 62 62 62
29 29 30 31 31 31 32 32 32 33 33 34 35 36 37 37 38 39 40 42 43 44 45 45 46 46 47 48 48 50 52 53 55 56 57 58 58 59 60 60 61 62 62
31 31 31 32 32 32 33 33 34 34 35 36 36 37 38 39 40 41 42 43 44 45 46 47 47 47 48 49 50 51 52 53 54 55 57 57 58 58 59 59 60 61 62
33 33 33 33 34 34 35 35 36 36 37 37 38 39 40 40 41 43 43 44 45 45 46 47 48 49 49 51 52 52 53 54 54 55 56 56 56 57 57 58 58 59 60
34 35 35 36 36 36 36 37 38 38 39 39 40 40 41 42 42 43 44 45 46 46 47 48 49 50 51 52 53 53 54 54 54 54 55 55 55 55 55 56 56 57 57
36 37 37 38 38 38 38 39 39 39 39 40 41 42 42 43 43 44 45 46 46 47 48 49 50 51 52 53 53 54 54 53 53 53 52 52 53 53 54 54 54 55 54
37 38 39 39 39 39 39 40 40 40 41 41 42 43 43 44 44 45 46 47 48 49 49 50 51 52 52 53 53 52 52 51 51 51 51 51 51 51 52 52 51 50 49
39 40 40 41 41 40 40 40 41 42 42 42 43 43 44 44 45 46 47 47 48 49 50 50 51 52 52 51 51 51 51 51 51 51 50 50 49 49 49 48 47 46 46
42 42 42 42 42 41 41 42 42 43 43 43 44 44 44 45 45 46 47 48 49 49 50 50 51 51 50 50 50 50 50 49 49 49 48 48 47 46 45 44 44 43 42
43 43 43 43 42 42 42 42 42 43 43 44 44 44 44 45 45 46 47 47 48 48 49 50 50 49 50 49 49 48 48 47 47 46 46 45 44 43 42 41 40 40 39
43 44 44 43 42 41 41 42 42 42 43 43 44 44 44 45 46 46 46 46 47 48 49 49 49 48 48 48 47 47 46 46 45 45 44 43 42 41 39 38 37 36 35
43 43 43 42 42 41 41 41 41 42 42 43 44 44 44 45 45 45 45 45 46 47 48 48 48 48 47 47 46 45 45 44 43 42 42 41 40 38 36 35 34 33 32
43 43 42 42 41 41 41 41 41 42 42 43 43 43 44 44 44 44 44 45 46 47 47 47 47 47 46 44 43 42 42 41 40 39 39 38 37 35 33 32 31 30 29
42 42 41 41 41 41 40 40 41 41 42 42 42 42 42 42 42 43 44 44 45 45 45 45 45 45 44 42 41 40 40 39 38 37 36 35 34 32 31 29 28 27 25
41 41 40 40 40 40 40 40 41 41 41 41 41 41 41 41 42 42 43 43 44 44 44 44 43 42 41 39 39 39 38 37 36 34 33 32 32 30 28 26 25 23 22
40 40 40 39 39 39 39 40 41 41 40 40 40 40 40 40 41 41 41 42 42 42 42 42 40 39 38 38 37 37 36 34 32 31 31 30 29 27 25 23 22 20 20
40 39 39 39 38 38 39 40 40 40 39 39 39 39 39 39 39 39 40 40 40 40 40 39 38 37 37 37 36 35 33 31 30 30 29 28 26 24 22 20 19 18 17
39 39 39 38 38 39 39 39 39 39 38 37 38 38 38 38 38 38 38 39 39 38 38 37 36 36 35 35 34 32 30 29 29 28 27 25 23 21 19 16 15 13 13
38 38 38 38 38 38 38 38 37 37 36 37 37 37 36 36 37 37 37 38 37 36 36 36 35 34 33 33 32 30 28 28 27 26 24 22 20 18 16 14 13 12 11
Wind_Direction
279 280 282 285 286 288 290 292 293 292 291 292 293 293 292 290 289 287 286 284 283 280 277 275 275 274 274 273 274 273 274 273 272 272 271 269 269 269 268 267 266 264 263
281 281 283 284 286 288 290 292 294 294 294 294 295 295 294 293 291 289 288 286 285 284 282 281 279 278 276 275 275 274 274 274 273 272 272 272 271 270 269 267 267 266 264
283 284 286 287 288 289 290 292 293 294 295 296 297 297 297 295 294 293 291 290 289 288 286 284 283 281 280 279 278 277 276 275 274 274 274 274 273 271 270 268 268 267 264
284 286 288 288 289 291 292 294 294 294 295 296 297 297 297 296 295 294 294 293 292 291 290 288 286 284 283 281 280 279 279 278 277 276 275 275 274 273 272 271 269 268 265
287 289 290 290 291 293 294 295 296 296 296 297 297 298 298 298 297 296 296 296 295 294 292 291 289 287 285 283 282 281 281 280 279 278 277 276 275 275 274 273 271 269 268
289 290 292 293 294 295 296 297 297 296 296 297 297 297 297 297 297 297 297 297 297 296 295 294 292 290 287 285 284 284 283 282 282 281 280 278 277 276 275 274 272 271 269
292 293 294 295 295 296 298 299 298 297 297 297 298 299 299 298 298 298 298 298 298 298 297 295 294 293 291 289 287 286 286 286 285 283 282 281 280 278 276 275 273 272 270
293 295 296 296 297 297 297 298 298 298 298 298 299 299 300 299 299 299 299 299 299 299 298 297 296 295 293 291 290 289 288 288 287 285 284 283 282 281 279 276 274 272 271
293 295 296 297 297 298 298 298 299 298 298 298 299 300 300 300 300 300 301 301 300 299 298 298 297 296 295 294 293 292 291 290 289 288 287 286 284 283 280 278 276 274 273
294 295 296 297 297 298 299 300 300 300 299 299 299 300 300 300 300 301 302 302 301 301 300 299 298 297 296 296 295 295 293 292 290 289 288 287 286 284 282 280 278 276 275
295 295 296 297 297 297 298 299 300 300 300 300 300 300 300 301 301 302 302 302 302 302 301 301 300 299 299 298 297 296 295 294 292 291 290 288 287 286 284 282 281 279 277
294 294 295 296 296 297 297 298 299 299 299 300 300 300 301 301 302 303 303 303 303 303 303 303 302 301 301 300 299 298 297 295 295 294 292 290 288 287 285 283 282 280 278
293 294 295 295 295 296 296 297 298 299 299 299 300 301 302 302 302 303 304 304 304 305 305 305 305 304 303 302 301 300 298 297 297 296 295 294 291 289 287 285 283 281 279
293 294 295 295 295 295 296 296 297 298 298 299 300 301 301 302 302 304 305 305 306 306 307 307 307 306 305 304 303 302 301 300 300 299 298 296 294 292 290 287 285 282 280
292 294 295 295 295 295 295 296 297 297 298 299 300 300 301 302 303 305 305 306 306 307 308 308 308 308 307 306 305 304 303 303 302 301 300 299 297 295 292 289 286 283 280
291 292 294 294 295 295 295 296 297 297 298 299 300 301 302 303 304 305 305 306 307 308 309 309 309 309 308 308 307 306 306 305 304 303 302 301 299 297 295 291 288 286 283
291 291 292 293 294 294 295 296 297 298 298 299 301 302 303 304 305 306 307 308 309 309 311 311 311 310 310 309 308 308 307 307 306 305 304 302 301 300 298 295 291 288 285
291 291 292 292 293 294 295 296 297 298 299 300 301 303 304 305 306 307 308 309 310 312 313 313 313 312 312 311 310 309 308 308 307 307 306 304 303 301 300 298 295 292 288
292 292 292 291 292 293 295 296 297 298 298 300 302 303 305 306 307 308 309 310 312 313 314 315 315 314 313 312 311 311 310 309 308 308 307 306 305 303 301 300 298 295 291
292 292 292 292 292 293 294 295 296 297 298 300 301 303 305 306 307 308 310 311 313 314 315 316 316 316 315 315 314 313 313 312 311 310 310 309 308 306 304 302 301 298 295
291 291 291 292 292 293 294 295 296 297 299 300 301 303 304 306 307 308 310 311 313 315 316 317 317 317 317 316 316 316 315 314 313 312 312 312 311 309 306 305 304 301 298
292 291 292 292 292 293 294 295 296 298 299 300 301 302 304 305 307 308 310 312 314 315 316 317 318 318 318 319 319 319 318 318 317 316 315 315 314 312 309 307 306 303 300
291 291 292 292 293 293 295 296 297 298 299 300 300 302 304 306 307 309 311 312 314 315 317 318 319 320 320 321 321 321 321 321 320 320 319 319 318 315 312 310 308 305 302
290 290 291 292 292 294 295 297 298 298 299 299 300 301 303 305 307 309 311 313 314 316 318 319 320 320 321 322 322 323 323 323 323 323 322 322 321 319 316 313 311 307 305
289 289 290 291 292 294 296 297 298 298 298 299 300 301 303 304 307 309 311 313 314 316 318 320 321 321 322 323 324 325 325 325 325 325 325 325 325 324 321 319 318 315 312
289 289 290 291 293 295 296 297 298 298 298 299 300 300 301 303 306 309 311 313 314 315 318 320 321 322 322 323 325 325 326 328 329 329 329 329 328 328 327 324 322 320 316
Height
5675 5674 5672 5670 5668 5666 5664 5662 5659 5656 5654 5651 5648 5646 5643 5641 5639 5637 5635 5633 5632 5631 5630 5629 5628 5628 5627 5626 5626 5625 5624 5623 5623 5623 5622 5621 5621 5620 5620 5620 5621 5622 5624
5668 5667 5665 5664 5662 5660 5658 5655 5652 5649 5647 5644 5641 5639 5636 5634 5632 5630 5628 5626 5624 5622 5621 5619 5618 5617 5616 5615 5613 5612 5611 5610 5610 5609 5609 5607 5606 5606 5605 5605 5605 5606 5607
5662 5661 5659 5657 5655 5653 5651 5648 5645 5643 5640 5637 5634 5632 5629 5627 5624 5622 5620 5618 5615 5613 5611 5610 5608 5606 5604 5603 5601 5599 5598 5597 5596 5595 5594 5593 5591 5590 5590 5589 5589 5590 5591
5656 5655 5653 5651 5649 5647 5644 5641 5638 5636 5633 5630 5627 5624 5622 5619 5616 5614 5611 5609 5607 5604 5602 5599 5597 5595 5592 5590 5588 5586 5584 5583 5581 5580 5579 5578 5576 5574 5573 5573 5573 5572 5573
5651 5649 5647 5645 5643 5640 5637 5634 5631 5628 5625 5623 5620 5617 5614 5611 5608 5606 5603 5600 5597 5594 5591 5588 5586 5583 5580 5578 5575 5573 5570 5568 5566 5565 5563 5562 5560 5557 5556 5555 5555 5555 5555
5645 5643 5641 5638 5636 5633 5630 5627 5624 5621 5618 5615 5612 5609 5606 5603 5600 5597 5594 5591 5588 5584 5581 5577 5574 5570 5567 5565 5562 5559 5556 5553 5551 5549 5546 5544 5542 5540 5538 5536 5535 5536 5537
5639 5637 5634 5632 5629 5626 5623 5620 5616 5613 5610 5608 5604 5601 5598 5594 5591 5588 5585 5581 5577 5574 5570 5566 5562 5558 5554 5551 5547 5544 5541 5537 5535 5532 5529 5526 5524 5521 5519 5517 5515 5514 5515
5633 5630 5627 5625 5622 5619 5616 5612 5609 5605 5602 5599 5596 5592 5589 5585 5581 5578 5574 5570 5566 5562 5558 5554 5549 5545 5541 5537 5534 5529 5525 5521 5517 5514 5511 5507 5504 5500 5497 5496 5494 5494 5493
5626 5623 5620 5617 5614 5611 5607 5604 5601 5597 5594 5590 5587 5583 5579 5575 5571 5567 5563 5559 5555 5550 5546 5541 5536 5532 5527 5523 5519 5515 5510 5505 5500 5495 5492 5487 5483 5479 5476 5474 5472 5471 5471
5618 5615 5612 5609 5606 5602 5599 5596 5592 5588 5585 5581 5577 5573 5569 5565 5561 5557 5552 5548 5544 5539 5533 5528 5523 5518 5513 5508 5503 5499 5494 5489 5483 5478 5473 5469 5464 5459 5455 5452 5450 5448 5447
5610 5607 5603 5600 5597 5593 5590 5587 5583 5579 5575 5571 5567 5563 5559 5554 5550 5545 5541 5536 5531 5526 5520 5515 5509 5504 5498 5493 5487 5482 5477 5472 5466 5461 5456 5451 5446 5441 5436 5432 5429 5426 5425
5601 5598 5595 5591 5588 5584 5580 5577 5573 5569 5565 5561 5556 5552 5547 5543 5538 5533 5528 5523 5518 5513 5508 5502 5496 5490 5484 5478 5471 5466 5460 5454 5448 5443 5438 5432 5427 5422 5418 5413 5410 5406 5404
5591 5588 5585 5581 5578 5574 5570 5566 5563 5558 5554 5550 5546 5541 5536 5531 5526 5521 5516 5511 5505 5500 5494 5488 5482 5475 5469 5462 5456 5449 5443 5437 5431 5425 5420 5414 5409 5403 5399 5395 5391 5387 5384
5581 5578 5574 5571 5567 5563 5559 5556 5552 5548 5543 5539 5535 5530 5525 5519 5514 5509 5504 5498 5492 5486 5480 5474 5467 5460 5453 5447 5440 5433 5426 5420 5414 5409 5403 5397 5391 5386 5381 5376 5373 5369 5367
5570 5567 5563 5560 5556 5552 5548 5544 5540 5536 5532 5528 5523 5518 5513 5508 5502 5497 5491 5486 5479 5473 5467 5460 5453 5446 5439 5431 5424 5418 5411 5404 5398 5392 5386 5380 5374 5369 5364 5359 5355 5352 5350
5559 5555 5552 5548 5544 5541 5537 5533 5528 5524 5520 5515 5511 5506 5501 5496 5491 5485 5479 5473 5466 5460 5453 5446 5439 5432 5424 5417 5410 5403 5396 5389 5383 5377 5370 5365 5359 5353 5348 5343 5339 5336 5334
5547 5543 5540 5536 5533 5529 5525 5521 5517 5512 5508 5503 5499 5494 5489 5484 5478 5473 5466 5460 5453 5447 5440 5433 5425 5418 5411 5404 5396 5390 5383 5376 5369 5363 5357 5351 5345 5339 5334 5330 5325 5322 5320
5535 5531 5527 5524 5520 5517 5513 5509 5505 5501 5496 5491 5487 5482 5477 5472 5466 5460 5454 5448 5441 5434 5427 5420 5412 5405 5398 5390 5383 5376 5370 5363 5356 5350 5344 5337 5332 5327 5322 5317 5313 5309 5307
5522 5518 5515 5512 5508 5504 5501 5497 5493 5489 5485 5480 5475 5470 5465 5460 5454 5448 5442 5436 5430 5423 5415 5408 5400 5393 5385 5378 5371 5364 5357 5351 5344 5338 5331 5325 5320 5315 5310 5306 5302 5298 5295
5509 5505 5502 5499 5496 5492 5488 5485 5481 5477 5473 5468 5464 5459 5453 5448 5443 5437 5431 5425 5419 5412 5404 5397 5389 5382 5374 5367 5360 5353 5346 5339 5333 5327 5321 5315 5309 5304 5300 5296 5292 5288 5285
5496 5493 5490 5487 5483 5480 5476 5473 5469 5465 5461 5457 5452 5447 5442 5437 5432 5426 5421 5414 5408 5401 5394 5386 5379 5371 5364 5357 5350 5343 5336 5330 5323 5317 5311 5306 5300 5295 5291 5287 5283 5279 5276
5484 5481 5478 5474 5471 5468 5465 5461 5458 5454 5450 5445 5441 5436 5432 5427 5421 5416 5410 5404 5397 5391 5384 5377 5369 5362 5355 5348 5341 5335 5328 5321 5315 5309 5303 5298 5293 5288 5283 5279 5276 5272 5270
5472 5469 5466 5463 5460 5456 5453 5450 5446 5442 5438 5434 5430 5426 5421 5416 5411 5406 5400 5394 5387 5381 5374 5367 5360 5353 5347 5340 5333 5327 5320 5314 5308 5302 5297 5291 5286 5281 5277 5273 5269 5266 5264
5460 5457 5454 5451 5448 5445 5442 5438 5434 5431 5427 5423 5419 5415 5410 5406 5401 5395 5390 5384 5378 5372 5365 5359 5352 5346 5339 5333 5326 5320 5314 5308 5302 5296 5291 5286 5281 5276 5272 5268 5264 5261 5259
5447 5445 5442 5439 5436 5433 5430 5427 5423 5419 5416 5412 5408 5404 5400 5395 5391 5386 5380 5374 5369 5363 5357 5350 5344 5338 5332 5326 5320 5314 5308 5302 5296 5291 5286 5281 5276 5272 5267 5264 5261 5258 5256
5435 5433 5430 5428 5425 5422 5419 5415 5412 5408 5405 5401 5397 5393 5389 5385 5381 5376 5371 5365 5360 5354 5349 5343 5337 5331 5326 5320 5314 5308 5303 5297 5292 5287 5282 5277 5273 5269 5265 5262 5259 5257 5255